"Pseudo-MPEC" for JNS051

Created 2020 Sep 20 2:07:18 UT using Find_Orb

Click here for an explanation of pseudo-MPECs

 
 Astrometry: 
     JNS051   C2020 09 14la_,\/5A_+d_2(6A2#'JRAstrometry0!8C?$*tpredacted;k3wQ66
     JNS051   C2020 09 14QoS`^uFi__UAvP-S2X+B3weR!IK;9HlbSFQSclickij8xeh)ru;*Q66
     JNS051   C2020 09 14Z]=WJ2L*^Ax`3`@ahereGMP7@)Vb2O^M3dQP@Uforl_Tg]o!x1u9Q66
     JNS051   C2020 09 143#CJCL[+8dC?w]Nl$].JC=8Z2m2ChKVkI[hONhZqexplanation-Q66

Station data:
(Q66) Siding Spring-Janess-G, JAXA  (S31.273299 E149.064250)  Australia/NSW.

Orbital elements:  JNS051
   Perigee 2020 Sep 15.550828 +/- 30.6 TT = 13:13:11 (JD 2459108.050828)
Epoch 2020 Sep 15.0 TT = JDT 2459107.5                        AutoNEOCP
M 347.66898260 +/- 19               (J2000 equator)
n  22.38633101 +/- 0.302            Peri.    2.88957 +/- 80
a269121.395 +/- 4.02e+7             Node    14.25523 +/- 80
e   0.2000412 +/- 0.201             Incl.   19.74006 +/- 0.30
P  16.08d                  H 31.9   G  0.15   U 11.9  SR
q 215286.017 +/- 8.47e+6    Q 322956.772 +/- 3.02e+8
From 4 observations 2020 Sept. 14 (46.0 min); mean residual 0".53
Residuals in arcseconds: 
200914 Q66  .11+  .91+    200914 Q66  .10+  .50-    
200914 Q66  .11-  .92-    200914 Q66  .10-  .51+    

Ephemerides (geocentric):
Date (UTC) HH   RA              Dec         delta   r     elong  mag " sig PA
---- -- -- --  -------------   -----------  ------ ------ -----  --- ---- ---
2020 09 20 02  09 25 40.249   +15 57 32.45  286048 1.0028  38.6 25??  51d 172
2020 09 20 03  09 28 56.319   +15 47 36.65  286735 1.0028  37.8 25??  51d 172
2020 09 20 04  09 32 11.139   +15 37 32.76  287414 1.0027  37.1 25??  51d 172
2020 09 20 05  09 35 24.729   +15 27 21.03  288087 1.0027  36.3 25??  51d 172
2020 09 20 06  09 38 37.108   +15 17 01.70  288753 1.0027  35.6 25??  51d 172
2020 09 20 07  09 41 48.296   +15 06 34.99  289411 1.0026  34.8 25??  51d 172
2020 09 20 08  09 44 58.310   +14 56 01.13  290062 1.0026  34.1 26??  51d 172
2020 09 20 09  09 48 07.171   +14 45 20.34  290706 1.0026  33.4 26??  51d 172
2020 09 20 10  09 51 14.896   +14 34 32.83  291342 1.0026  32.6 26??  52d 172
2020 09 20 11  09 54 21.506   +14 23 38.80  291970 1.0025  31.9 26??  52d 172
2020 09 20 12  09 57 27.019   +14 12 38.47  292591 1.0025  31.2 26??  52d 172
2020 09 20 13  10 00 31.455   +14 01 32.01  293205 1.0025  30.5 26??  52d 172
2020 09 20 14  10 03 34.831   +13 50 19.64  293810 1.0024  29.8 26??  52d 172
2020 09 20 15  10 06 37.167   +13 39 01.53  294408 1.0024  29.0 26??  52d 172
2020 09 20 16  10 09 38.482   +13 27 37.86  294998 1.0024  28.3 27??  52d 172
2020 09 20 17  10 12 38.794   +13 16 08.81  295579 1.0024  27.6 27??  52d 172
2020 09 20 18  10 15 38.122   +13 04 34.55  296153 1.0023  26.9 27??  52d 172
2020 09 20 19  10 18 36.484   +12 52 55.26  296719 1.0023  26.2 27??  52d 172
2020 09 20 20  10 21 33.900   +12 41 11.08  297276 1.0023  25.5 27??  52d 173
2020 09 20 21  10 24 30.387   +12 29 22.19  297825 1.0023  24.9 27??  52d 173
2020 09 20 22  10 27 25.964   +12 17 28.73  298366 1.0022  24.2 28??  52d 173
2020 09 20 23  10 30 20.649   +12 05 30.86  298899 1.0022  23.5 28??  53d 173
2020 09 21 00  10 33 14.460   +11 53 28.71  299423 1.0022  22.8 28??  53d 173
2020 09 21 01  10 36 07.414   +11 41 22.44  299939 1.0022  22.1 28??  53d 173
2020 09 21 02  10 38 59.531   +11 29 12.18  300446 1.0021  21.5 28??  53d 173
2020 09 21 03  10 41 50.827   +11 16 58.06  300944 1.0021  20.8 29??  53d 173
2020 09 21 04  10 44 41.321   +11 04 40.22  301435 1.0021  20.1 29??  53d 173
2020 09 21 05  10 47 31.030   +10 52 18.78  301916 1.0021  19.5 29??  53d 173
2020 09 21 06  10 50 19.971   +10 39 53.87  302389 1.0021  18.8 29??  53d 173
2020 09 21 07  10 53 08.162   +10 27 25.60  302853 1.0020  18.1 30??  53d 173
2020 09 21 08  10 55 55.620   +10 14 54.10  303308 1.0020  17.5 30??  53d 173
2020 09 21 09  10 58 42.362   +10 02 19.48  303754 1.0020  16.8 30??  53d 173
2020 09 21 10  11 01 28.405   +09 49 41.84  304192 1.0020  16.2 30??  53d 173
2020 09 21 11  11 04 13.766   +09 37 01.31  304621 1.0019  15.6 31??  53d 173
2020 09 21 12  11 06 58.462   +09 24 17.97  305040 1.0019  14.9 31??  53d 173
2020 09 21 13  11 09 42.509   +09 11 31.94  305451 1.0019  14.3 32??  54d 173
2020 09 21 14  11 12 25.925   +08 58 43.32  305853 1.0019  13.7 32??  54d 173
2020 09 21 15  11 15 08.725   +08 45 52.19  306245 1.0019  13.0 32??  54d 173
2020 09 21 16  11 17 50.925   +08 32 58.67  306629 1.0018  12.4 33??  54d 173
2020 09 21 17  11 20 32.543   +08 20 02.83  307004 1.0018  11.8 33??  54d 173
2020 09 21 18  11 23 13.593   +08 07 04.76  307369 1.0018  11.2 34??  54d 173
2020 09 21 19  11 25 54.093   +07 54 04.57  307725 1.0018  10.6 34??  54d 173
2020 09 21 20  11 28 34.058   +07 41 02.32  308072 1.0018  10.1 35??  54d 173
2020 09 21 21  11 31 13.504   +07 27 58.11  308410 1.0018   9.5 35??  54d 173
2020 09 21 22  11 33 52.446   +07 14 52.01  308738 1.0017   8.9 36??  54d 173
2020 09 21 23  11 36 30.901   +07 01 44.11  309058 1.0017   8.4 37??  54d 173
2020 09 22 00  11 39 08.883   +06 48 34.48  309368 1.0017   7.9 38??  54d 173
2020 09 22 01  11 41 46.409   +06 35 23.19  309668 1.0017   7.3 39??  54d 173